Wind_Speed
5 10 1 11 12 14 11 2 5 7 6 8 10 10 15 17 19 21 26 28 29 32 34 38 37 37 35 34 34 34 33 32 32 27 22 19 15 12 9 6 5 2 3 8
7 13 7 5 11 7 8 11 12 11 7 6 9 10 14 18 19 21 23 24 27 27 30 35 35 32 32 33 33 31 31 33 32 30 28 26 24 21 17 15 13 8 6 4
2 8 6 4 5 6 10 13 3 3 6 6 7 11 15 17 18 19 20 21 23 23 25 28 29 33 33 30 28 27 29 31 31 30 30 31 28 26 26 24 20 18 16 14
4 6 6 6 6 10 12 8 7 8 7 8 12 12 12 13 14 16 18 20 21 22 23 25 26 27 28 29 32 32 31 29 27 28 28 27 27 28 28 27 26 24 22 20
3 2 6 5 4 3 1 5 6 2 7 9 11 9 15 13 12 13 13 14 16 18 21 22 24 25 28 32 32 32 31 29 28 25 25 24 25 25 25 23 23 24 23 22
3 5 6 5 1 2 3 4 4 3 3 5 12 1 4 9 10 11 13 14 16 17 17 19 20 20 23 26 29 30 28 27 26 25 24 23 22 21 21 21 22 22 22 22
5 5 4 5 6 3 5 5 7 7 9 4 6 9 6 5 9 10 11 13 14 15 17 18 18 19 22 23 26 26 25 24 24 23 22 21 21 20 19 19 18 19 21 21
3 4 4 9 3 3 9 12 11 10 11 15 13 10 7 8 9 10 10 12 14 14 15 17 19 18 20 22 21 19 19 21 22 21 20 20 19 19 19 19 20 20 20 21
3 3 6 9 11 12 12 13 11 11 9 10 9 8 7 7 9 10 11 11 11 12 13 15 17 18 18 18 16 16 16 17 18 20 21 21 21 21 21 21 21 21 21 21
5 5 7 9 12 13 12 13 12 10 9 8 8 6 7 7 9 10 10 11 10 11 13 14 16 17 17 18 17 16 17 18 18 19 19 20 20 20 21 22 20 19 20 20
5 8 9 8 11 12 13 12 12 10 9 8 8 7 6 7 8 9 9 10 10 12 12 14 15 16 17 17 17 17 17 18 19 18 18 18 18 22 20 19 18 18 18 17
2 14 5 12 12 12 13 12 10 10 10 8 7 7 6 7 7 8 8 9 10 11 12 14 15 16 16 16 16 17 15 15 16 15 15 14 13 11 18 16 16 16 15 14
7 9 12 17 13 11 13 12 11 10 9 9 8 7 7 7 7 8 8 8 9 10 11 12 13 14 14 15 16 15 13 15 13 13 12 13 13 12 12 13 17 16 16 16
18 21 16 15 10 13 13 12 10 10 10 10 9 9 9 8 8 7 7 7 7 9 11 13 14 15 16 16 15 15 14 14 13 13 12 12 12 12 12 13 14 15 16 17
9 5 13 16 16 14 11 10 9 9 10 9 8 8 7 7 6 6 6 7 7 9 10 12 13 15 15 15 15 15 14 12 13 12 12 13 12 12 12 12 12 13 14 15
12 14 16 15 14 12 9 8 9 10 10 9 8 7 7 6 4 4 5 6 6 9 11 14 16 18 18 17 16 13 12 13 13 11 12 11 11 11 11 11 12 12 13 14
16 13 13 13 12 10 8 8 9 10 10 8 7 5 5 4 4 5 7 8 8 9 11 14 17 19 19 18 16 11 11 11 12 10 11 11 11 11 11 11 11 11 11 13
6 8 9 10 12 10 9 9 9 9 8 7 6 4 4 4 3 5 7 8 8 10 11 14 17 19 20 19 17 11 10 11 11 11 11 11 12 11 11 10 10 10 10 12
7 9 9 11 10 9 10 10 10 9 8 6 4 3 2 3 4 6 7 9 10 10 12 16 17 19 20 20 19 10 10 11 11 11 11 11 11 11 11 10 10 10 9 10
9 11 12 12 11 10 11 11 10 8 6 4 3 2 2 3 6 8 11 11 11 11 15 16 17 16 18 19 20 11 11 11 11 11 11 11 11 11 11 11 11 11 10 10
12 13 12 12 13 13 11 10 8 6 5 4 3 2 3 6 9 11 11 10 11 16 16 16 15 12 12 16 14 12 11 11 11 11 12 12 12 12 12 12 11 11 12 11
13 14 14 13 13 12 11 8 7 6 5 3 1 2 6 9 11 12 13 12 12 15 16 12 12 13 15 17 13 13 12 12 12 12 12 13 13 13 13 13 13 12 11 10
15 15 15 14 12 11 9 8 7 6 3 0 2 6 9 9 9 9 9 10 13 14 16 12 13 16 17 19 15 15 15 15 15 15 15 14 14 14 14 13 13 12 12 12
17 17 16 14 12 11 9 7 5 3 2 3 6 8 11 9 9 8 9 13 15 17 16 14 13 16 19 21 19 18 19 19 19 18 19 19 17 15 15 14 13 12 13 14
17 16 15 14 12 9 6 5 3 3 3 3 5 9 12 12 11 11 14 14 16 16 14 14 19 20 21 19 18 18 18 17 18 19 19 19 20 19 17 16 15 14 14 14
18 16 14 12 8 8 6 5 3 3 3 4 5 7 8 11 11 12 11 14 14 15 14 15 15 19 16 15 17 17 17 17 19 19 19 18 19 19 20 20 18 15 14 14
16 14 12 10 8 7 6 4 3 3 5 8 6 8 11 11 12 13 15 14 16 16 15 14 15 17 19 20 17 18 19 19 18 19 18 18 18 18 18 19 21 18 15 14
Wind_Direction
206 171 290 32 10 12 41 53 12 105 90 42 30 26 9 11 13 17 19 20 19 21 23 25 34 40 43 46 52 52 53 58 57 55 55 55 54 51 54 67 84 125 220 238
263 238 239 60 28 27 50 74 91 119 93 71 61 34 20 16 17 21 20 19 20 20 21 30 25 31 42 45 52 51 54 56 57 57 55 55 54 55 52 52 51 43 30 3
261 180 198 184 45 51 66 40 20 66 99 118 86 52 29 15 16 17 18 18 20 20 26 31 27 31 42 42 49 54 55 56 55 54 52 53 52 53 52 48 45 45 44 37
284 172 229 98 125 105 88 56 44 99 128 121 105 86 49 29 21 18 15 15 16 20 28 35 32 38 39 45 51 52 53 53 55 54 53 52 50 51 50 48 47 44 44 42
261 250 104 154 165 198 288 67 29 30 164 158 156 136 52 26 26 26 21 21 21 19 24 28 34 38 45 48 48 49 49 49 49 51 52 51 51 51 53 50 50 49 48 47
293 264 219 71 64 220 277 147 51 68 129 189 202 200 62 20 30 33 29 28 27 25 27 27 28 31 42 48 46 44 44 44 45 46 47 48 48 45 48 47 48 50 49 48
245 261 114 22 328 208 234 100 106 75 66 93 95 68 98 55 41 42 36 31 31 28 29 27 26 28 34 33 38 34 37 39 41 43 44 42 43 45 44 48 48 46 44 44
236 239 182 357 169 273 111 115 109 94 89 97 105 102 85 63 54 45 41 37 36 35 31 29 29 31 30 32 24 27 26 31 34 35 36 36 38 40 39 40 42 41 41 40
337 51 67 48 76 108 121 118 109 106 103 106 109 98 83 71 60 52 45 42 37 37 35 33 31 33 30 27 23 23 27 27 27 28 26 25 23 25 27 28 27 25 24 24
177 125 102 91 91 102 111 113 112 111 111 111 112 103 88 75 62 54 48 44 39 36 36 30 28 29 29 22 19 18 23 22 21 22 23 20 20 20 17 20 21 18 18 14
84 121 115 104 112 113 112 111 111 108 106 109 110 102 95 81 66 57 50 43 39 36 32 28 26 25 24 21 17 19 19 17 19 15 13 13 10 6 10 8 8 6 7 6
87 159 96 139 136 128 122 122 119 114 105 96 104 106 98 86 73 65 56 48 42 37 34 27 24 21 17 17 18 18 14 13 7 9 8 8 8 7 348 1 360 358 355 353
132 144 147 140 134 133 128 122 121 119 114 113 107 113 108 98 89 78 64 55 48 38 31 24 20 13 10 10 11 8 6 5 4 2 0 358 358 357 355 354 352 350 349 350
126 122 119 139 147 138 129 124 118 112 109 111 118 117 119 114 104 97 81 65 48 33 22 15 9 4 2 359 355 353 356 350 356 352 351 348 348 349 351 350 349 351 349 349
143 121 146 140 137 136 133 126 119 115 117 119 119 115 112 104 93 73 56 39 23 12 5 4 2 359 354 350 347 344 344 342 342 339 335 339 339 339 341 343 344 345 347 347
128 127 134 139 143 143 140 137 136 136 136 132 126 116 110 101 84 62 38 20 13 2 5 4 1 357 353 350 346 342 338 332 337 335 331 330 328 329 329 333 336 339 342 348
137 142 149 150 152 150 148 144 147 144 141 136 129 116 100 83 56 26 8 2 2 2 1 1 359 356 354 350 346 339 334 330 332 332 323 323 323 320 319 322 325 330 332 334
152 153 157 165 160 158 151 146 142 141 138 135 128 114 87 53 22 4 1 358 355 352 353 351 350 352 355 354 350 343 337 332 330 327 325 319 315 317 311 309 311 316 320 323
149 151 155 159 163 162 155 153 150 145 140 134 121 102 67 34 18 3 353 345 338 343 320 335 340 345 351 353 353 344 337 334 331 325 321 319 321 315 312 304 302 305 310 317
163 157 158 160 161 160 158 152 149 141 136 133 124 100 63 10 351 341 335 332 324 318 318 321 327 334 342 346 349 344 335 332 328 325 322 326 319 318 314 311 304 297 299 305
164 161 161 159 155 152 150 144 143 147 146 141 130 102 6 346 341 336 336 328 318 315 318 311 313 316 324 333 338 328 330 329 327 322 321 319 318 315 311 308 305 298 295 295
168 164 159 157 155 153 151 154 156 155 155 147 106 5 345 337 334 333 329 322 322 321 318 301 293 293 312 320 320 317 317 318 319 318 316 315 314 312 308 304 299 296 295 294
167 164 161 157 156 158 158 160 160 161 156 277 325 331 331 324 319 322 322 315 324 322 324 308 287 296 304 311 307 303 304 303 304 303 304 304 308 309 307 301 298 288 290 293
168 164 163 163 164 161 162 166 171 184 236 288 304 315 323 320 313 311 311 315 321 323 326 317 306 296 297 302 300 297 296 296 293 295 293 290 293 295 299 299 294 289 288 291
170 170 171 172 167 166 172 176 183 217 261 265 298 312 318 317 313 308 313 317 319 321 317 309 301 299 299 301 299 298 298 299 296 295 295 288 281 281 282 286 288 289 286 286
175 176 176 173 175 176 174 175 194 213 230 278 296 301 315 316 316 319 315 318 323 321 321 319 313 309 310 303 299 301 299 302 301 298 296 297 293 288 279 272 273 278 283 281
175 177 175 177 182 189 195 205 201 229 284 299 306 304 316 317 319 320 319 321 322 323 324 321 321 315 313 310 309 305 304 303 300 298 300 300 298 293 291 281 267 261 267 276
Height
1481 1485 1479 1482 1483 1475 1466 1463 1458 1480 1486 1494 1495 1494 1491 1488 1483 1477 1470 1465 1462 1455 1450 1445 1436 1429 1426 1424 1421 1418 1417 1416 1416 1416 1416 1416 1414 1413 1412 1412 1410 1411 1410 1410
1479 1477 1478 1482 1483 1476 1474 1476 1480 1482 1491 1499 1499 1498 1494 1489 1486 1483 1479 1474 1468 1463 1457 1450 1448 1443 1439 1432 1428 1428 1428 1426 1423 1422 1423 1421 1419 1417 1415 1413 1411 1410 1409 1407
1461 1473 1468 1469 1486 1486 1485 1482 1478 1477 1492 1499 1499 1500 1498 1493 1490 1487 1483 1479 1474 1472 1466 1461 1456 1449 1443 1443 1442 1441 1436 1433 1430 1429 1427 1423 1423 1420 1417 1415 1415 1412 1410 1408
1460 1470 1459 1481 1485 1484 1486 1489 1488 1489 1495 1499 1501 1503 1502 1499 1495 1491 1487 1483 1479 1475 1471 1467 1463 1459 1456 1452 1446 1443 1439 1437 1438 1434 1432 1431 1429 1425 1423 1421 1417 1416 1413 1412
1465 1456 1478 1483 1486 1483 1482 1492 1493 1492 1495 1499 1501 1499 1501 1501 1498 1495 1492 1489 1486 1481 1476 1472 1468 1465 1461 1455 1451 1448 1449 1447 1443 1440 1438 1437 1435 1433 1430 1428 1425 1422 1419 1417
1463 1457 1454 1477 1485 1488 1488 1482 1494 1493 1494 1494 1498 1490 1502 1503 1500 1497 1495 1491 1488 1485 1482 1479 1476 1472 1467 1464 1461 1458 1455 1452 1449 1446 1444 1442 1440 1437 1434 1431 1428 1426 1424 1420
1463 1457 1472 1485 1487 1488 1478 1488 1493 1494 1494 1493 1496 1501 1505 1504 1501 1499 1497 1494 1492 1489 1486 1484 1480 1476 1471 1468 1463 1462 1459 1456 1454 1452 1450 1448 1445 1441 1439 1435 1433 1430 1427 1424
1465 1460 1465 1487 1485 1480 1489 1491 1493 1496 1498 1499 1502 1504 1505 1503 1501 1501 1500 1497 1495 1494 1491 1488 1484 1481 1476 1473 1472 1469 1468 1464 1461 1458 1455 1453 1449 1446 1443 1439 1436 1434 1432 1428
1478 1478 1488 1488 1486 1487 1490 1493 1495 1497 1500 1501 1503 1504 1504 1504 1503 1503 1502 1500 1499 1498 1495 1492 1489 1485 1483 1481 1480 1477 1474 1470 1465 1461 1457 1454 1452 1448 1444 1440 1438 1436 1434 1431
1480 1489 1490 1491 1490 1491 1492 1494 1497 1499 1501 1502 1504 1505 1506 1505 1504 1504 1503 1502 1502 1500 1497 1495 1491 1487 1484 1482 1482 1479 1474 1470 1466 1462 1461 1457 1454 1451 1447 1443 1442 1440 1437 1434
1485 1490 1492 1493 1493 1494 1494 1496 1498 1501 1502 1503 1504 1506 1506 1506 1505 1504 1503 1503 1502 1500 1498 1495 1492 1488 1485 1484 1482 1479 1474 1471 1467 1465 1463 1460 1456 1454 1451 1449 1447 1444 1440 1438
1473 1484 1486 1491 1493 1495 1497 1499 1501 1501 1502 1503 1505 1506 1506 1506 1505 1505 1505 1503 1502 1501 1498 1496 1493 1490 1487 1485 1482 1478 1477 1475 1472 1470 1467 1465 1462 1462 1456 1454 1449 1446 1443 1439
1481 1484 1486 1491 1494 1497 1499 1501 1502 1503 1503 1504 1505 1507 1507 1507 1506 1505 1506 1505 1504 1502 1500 1498 1495 1493 1490 1486 1483 1481 1479 1476 1475 1472 1470 1467 1465 1462 1459 1454 1449 1446 1443 1439
1482 1485 1490 1493 1495 1498 1499 1500 1501 1502 1503 1505 1507 1507 1507 1507 1507 1507 1507 1506 1504 1503 1501 1499 1496 1493 1490 1487 1484 1481 1478 1477 1474 1472 1469 1467 1465 1461 1458 1454 1451 1447 1442 1439
1484 1485 1487 1491 1494 1497 1499 1500 1502 1503 1504 1506 1507 1507 1507 1507 1507 1507 1506 1505 1504 1503 1501 1498 1495 1493 1490 1486 1484 1480 1478 1476 1473 1473 1470 1466 1464 1461 1458 1456 1452 1449 1444 1440
1484 1486 1488 1491 1494 1497 1499 1501 1502 1504 1505 1506 1506 1507 1507 1507 1507 1507 1506 1505 1504 1502 1499 1497 1495 1492 1488 1485 1482 1480 1479 1476 1473 1472 1470 1467 1464 1462 1459 1456 1453 1449 1445 1440
1484 1488 1490 1492 1494 1497 1499 1500 1501 1502 1503 1504 1506 1506 1506 1506 1506 1506 1505 1504 1502 1501 1499 1497 1494 1491 1487 1484 1481 1479 1478 1476 1473 1472 1469 1466 1464 1461 1458 1455 1453 1450 1446 1440
1485 1486 1489 1491 1493 1494 1496 1498 1500 1501 1503 1504 1505 1506 1506 1506 1506 1505 1504 1503 1501 1499 1497 1495 1492 1489 1486 1482 1479 1477 1476 1474 1472 1469 1467 1464 1461 1459 1456 1454 1451 1449 1446 1442
1484 1486 1487 1489 1491 1493 1495 1497 1499 1501 1503 1504 1505 1505 1505 1505 1505 1504 1502 1501 1499 1497 1496 1493 1490 1487 1484 1481 1478 1477 1474 1472 1470 1467 1464 1461 1459 1456 1454 1451 1449 1447 1444 1441
1482 1484 1486 1488 1491 1493 1495 1497 1499 1500 1502 1503 1503 1504 1504 1504 1503 1501 1500 1499 1497 1496 1493 1491 1488 1485 1483 1479 1477 1476 1473 1470 1468 1465 1462 1459 1456 1454 1451 1448 1446 1444 1442 1439
1482 1484 1486 1488 1491 1493 1495 1497 1498 1500 1501 1502 1503 1503 1503 1502 1501 1499 1498 1498 1497 1492 1490 1487 1485 1484 1481 1478 1476 1474 1471 1468 1466 1463 1460 1457 1454 1451 1449 1446 1443 1441 1439 1437
1482 1484 1487 1489 1491 1493 1495 1497 1498 1500 1501 1502 1502 1502 1501 1500 1499 1497 1496 1494 1492 1489 1486 1485 1484 1481 1479 1476 1474 1472 1469 1466 1463 1460 1457 1454 1451 1448 1445 1443 1440 1438 1436 1433
1482 1485 1487 1490 1492 1494 1495 1497 1499 1500 1500 1501 1501 1501 1500 1499 1498 1496 1495 1493 1489 1486 1483 1481 1479 1477 1474 1472 1470 1468 1465 1462 1460 1457 1454 1451 1448 1445 1442 1439 1436 1434 1432 1430
1482 1485 1488 1490 1492 1494 1496 1497 1498 1499 1500 1500 1500 1499 1498 1498 1496 1494 1492 1489 1485 1482 1480 1477 1475 1473 1470 1468 1465 1463 1460 1457 1455 1452 1449 1446 1442 1440 1438 1435 1432 1430 1428 1426
1483 1485 1488 1491 1493 1495 1496 1497 1498 1498 1498 1499 1498 1496 1495 1493 1492 1490 1487 1484 1481 1478 1476 1475 1471 1468 1465 1462 1459 1456 1453 1450 1448 1445 1442 1439 1437 1435 1432 1430 1428 1426 1424 1422
1483 1486 1488 1490 1494 1495 1496 1496 1498 1498 1498 1498 1497 1494 1492 1489 1487 1485 1483 1480 1478 1474 1472 1468 1465 1461 1459 1456 1453 1450 1448 1445 1442 1439 1435 1433 1430 1427 1425 1423 1422 1420 1419 1417
1483 1485 1488 1490 1492 1493 1494 1495 1495 1495 1494 1493 1493 1490 1488 1485 1483 1481 1478 1476 1472 1469 1466 1463 1460 1456 1452 1448 1446 1443 1440 1438 1435 1432 1429 1426 1423 1421 1418 1416 1415 1413 1412 1411